Regional Weather Roundup
Issued by NWS

Home | Current Version | Previous Version | Graphics & Text | Print | Product List | Glossary Off
Versions: 1 2 3 4 5 6 7 8 9 10 11 12 13 14 15 16 17 18 19 20 21 22 23 24 25 26 27 28 29 30 31 32 33 34 35 36 37 38 39 40 41 42 43 44 45 46 47 48 49 50

000
ASUS43 KMKX 210810
RWRWI

WISCONSIN REGIONAL WEATHER ROUNDUP
NATIONAL WEATHER SERVICE MILWAUKEE/SULLIVAN WI
300 AM CDT SAT APR 21 2018

NOTE: "FAIR" INDICATES FEW OR NO CLOUDS BELOW 12,000 FEET WITH NO
SIGNIFICANT WEATHER AND/OR OBSTRUCTIONS TO VISIBILITY.

WIZ001-002-006>008-014>016-023>028-210900-
NORTHWEST WISCONSIN

CITY           SKY/WX    TMP DP  RH WIND       PRES   REMARKS
SUPERIOR ARPT  FAIR      32  20  60 S5        30.40F WCI  27
ASHLAND        FAIR      36  18  48 SW7       30.41R WCI  30
HAYWARD        FAIR      27  21  78 CALM      30.41S
SIREN          FAIR      28  21  76 CALM      30.42R
CUMBERLAND     FAIR      28  19  69 CALM      30.41R
RICE LAKE      FAIR      28  25  90 CALM      30.43R
CHETEK         FAIR      27  24  88 CALM      30.42R
LADYSMITH      FAIR      27  22  82 CALM      30.43R
EAU CLAIRE     FAIR      29  23  78 CALM      30.41S
MENOMONIE      FAIR      33  26  75 CALM      30.42S
NEW RICHMOND   FAIR      30  26  86 CALM      30.41F
OSCEOLA        FAIR      30  27  86 CALM      30.44S
$$

WIZ003>005-009-010-017-018-210900-
NORTH CENTRAL WISCONSIN

CITY           SKY/WX    TMP DP  RH WIND       PRES   REMARKS
MANITOWISH WTR FAIR      27  21  77 CALM      30.40R
ARBOR VITAE    FAIR      29  19  66 CALM      30.40S
WOODRUFF       FAIR      29  19  66 CALM      30.40S
RHINELANDER    FAIR      28  18  66 CALM      30.40F
EAGLE RIVER    FAIR      27  19  73 CALM      30.39S
LAND O LAKES   FAIR      27  19  72 CALM      30.40S
PHILLIPS       FAIR      25  22  87 CALM      30.39F
TOMAHAWK       FAIR      24  18  80 CALM      30.41S
MEDFORD        FAIR      26  20  78 CALM      30.40S
MERRILL        FAIR      26  20  79 CALM      30.42S
$$

WIZ029-030-035-036-043>047-210900-
CENTRAL WISCONSIN

CITY           SKY/WX    TMP DP  RH WIND       PRES   REMARKS
WAUSAU         FAIR      27  20  75 CALM      30.40S
MOSINEE        FAIR      32  16  51 CALM      30.42S
MARSHFIELD     FAIR      32  23  69 CALM      30.39F
STEVENS POINT  FAIR      25  18  76 CALM      30.43R
WAUPACA        FAIR      31  24  77 CALM      30.43S
WAUTOMA        FAIR      28  23  81 CALM      30.44S
WISC RAPIDS    FAIR      29  18  63 CALM      30.43S
CAMP DOUGLAS   FAIR      25  22  88 CALM      30.42S
$$

WIZ011>013-019>022-031-037>040-048>050-210900-
NORTHEAST WISCONSIN

CITY           SKY/WX    TMP DP  RH WIND       PRES   REMARKS
ANTIGO         FAIR      27  25  94 CALM      30.41S
SHAWANO        FAIR      30  22  71 CALM      30.42S
OCONTO         FAIR      26  20  76 CALM      30.42F
STURGEON BAY   FAIR      36  20  52 CALM      30.43F
GREEN BAY      FAIR      29  25  85 SW3       30.43F
MANITOWOC      FAIR      30  26  85 CALM      30.44F
APPLETON       FAIR      36  14  41 W6        30.42R WCI  31
CLINTONVILLE   FAIR      28  19  71 CALM      30.43S
OSHKOSH        FAIR      38  20  48 CALM      30.43S
$$

WIZ032>034-041-042-053>061-210900-
SOUTHWEST WISCONSIN

CITY           SKY/WX    TMP DP  RH WIND       PRES   REMARKS
LA CROSSE      FAIR      36  28  73 CALM      30.42S
SPARTA         FAIR      26  22  85 CALM      30.43F
VIROQUA        FAIR      39  24  53 E7        30.40S WCI  34
BOSCOBEL       FAIR      33  29  85 CALM      30.42F
PRAIRIE DU CHI FAIR      37  30  75 CALM      30.42S
PLATTEVILLE    FAIR      41  30  66 E9        30.41R
$$

WIZ056-057-062-063-064-067-068-210900-
SOUTH CENTRAL WISCONSIN

CITY           SKY/WX    TMP DP  RH WIND       PRES   REMARKS
REEDSBURG      FAIR      30  26  85 CALM      30.43R
BARABOO/DELLS  FAIR      29  21  73 CALM      30.42S
LONE ROCK      FAIR      31  28  89 CALM      30.43S
MINERAL POINT  FAIR      43  27  52 SE6       30.41R
MADISON        FAIR      31  26  82 CALM      30.43R
MIDDLETON      FAIR      33  31  91 CALM      30.43S
WATERTOWN      FAIR      28  24  82 CALM      30.43R
MONROE         FAIR      43  21  42 SE6       30.41S
JANESVILLE     FAIR      34  30  86 CALM      30.42S
$$

WIZ051-052-058>065-066-070>072-210900-
SOUTHEAST WISCONSIN

CITY           SKY/WX    TMP DP  RH WIND       PRES   REMARKS
MILWAUKEE      FAIR      35  20  54 CALM      30.43F
WAUKESHA       FAIR      30  23  74 CALM      30.45R
MILWAUKEE/TIMM FAIR      30  23  74 CALM      30.44S
RACINE         FAIR      31  23  72 W3        30.45S
BURLINGTON     FAIR      29  26  87 CALM      30.44R
KENOSHA        FAIR      33  22  63 CALM      30.44S
FOND DU LAC    FAIR      29  20  69 CALM      30.43S
SHEBOYGAN      FAIR      30  28  92 CALM      30.43F
WEST BEND      FAIR      30  27  86 CALM      30.43R
JUNEAU         FAIR      34  24  66 CALM      30.44R
$$

LSZ147-162-210900-
LAKE SUPERIOR

STATION/POSITION TIME  TEMP    WIND        PRES    WAVE
                       AIR SEA DIR/SP/G            HT/PER
                 (UTC) (F)     (DEG/KT/KT) (MB)    (FT/S)
DEVILS ISLAND    0800   38     250/  9/  9 1030.1R
SAXON HARBOR     0740   30     200/  3/  5 1028.8S
$$

LMZ867-665-643>646-210900-
LAKE MICHIGAN

STATION/POSITION TIME  TEMP    WIND        PRES    WAVE
                       AIR SEA DIR/SP/G            HT/PER
                 (UTC) (F)     (DEG/KT/KT) (MB)    (FT/S)
NORTHPORT PIER   0740   35                 1029.5F
KEWAUNEE LAKESHO 0742   31     300/  3/  3 1029.5F
SHEBOYGAN LAKESH 0800   38      CALM  /  1 1031.1F
PORT WASHINGTON  0740   33      CALM  /  1 1031.2F
MILWAUKEE LAKESH 0750   39        CALM       N/A
KENOSHA   LAKESH 0800   37                 1030.5
$$

TC  - TEMPERATURE IN CELSIUS
VSB - VISIBILITY IN STATUTE MILES
WCI - WIND CHILL INDEX
HX  - HEAT INDEX




USA.gov is the U.S. government's official web portal to all federal, state and local government web resources and services.